Lapse_Rate
6.8 7.4 8.1 9.4 9.2 8.2 7.8 7.1 6.4 6.4 6.7 5.9 5.8 5.7 5.3 5.0 5.2 6.0 5.3 5.7 5.6 5.7 5.3 5.5 5.7 5.7 5.4 5.3 5.8 5.5 5.8 6.0 5.9 6.0 5.8 5.4 5.9 5.4 5.3 5.5 5.9 5.9 5.6 5.5
7.2 7.8 8.9 9.4 8.6 8.4 9.1 8.2 7.5 6.9 6.2 6.5 5.9 5.5 5.4 5.4 5.5 5.7 5.5 5.1 5.5 5.5 5.6 5.6 5.4 5.5 5.3 5.4 5.8 5.8 5.9 5.8 5.8 6.0 5.3 5.1 5.4 5.5 5.9 5.5 6.0 6.0 5.9 5.8
8.2 9.2 8.3 8.1 8.2 8.4 8.7 9.1 8.0 8.2 7.3 7.3 6.7 5.8 5.6 5.1 5.5 5.7 5.9 5.4 5.1 5.4 5.3 5.4 5.3 5.4 5.3 4.9 5.9 5.7 5.8 5.7 5.8 5.7 5.6 5.5 5.6 5.4 5.5 5.4 6.0 6.0 6.1 6.1
8.2 8.1 7.7 8.1 8.5 8.6 9.5 9.1 8.7 8.4 8.5 7.3 7.7 8.6 5.8 5.9 5.7 5.3 5.6 5.1 5.2 5.2 5.5 5.5 5.3 5.3 5.3 5.2 5.0 5.6 5.8 5.7 5.7 5.9 5.6 5.6 5.4 5.3 5.5 5.3 5.6 6.1 6.3 6.3
9.1 7.5 7.8 8.2 8.6 9.1 9.2 8.6 8.6 9.2 9.2 8.9 8.6 8.8 6.9 6.1 5.6 5.9 5.5 5.0 5.5 6.1 5.7 5.6 5.5 5.5 5.4 5.3 5.4 5.1 5.7 5.6 5.6 5.6 5.4 5.6 5.7 5.4 5.3 5.4 5.8 5.5 5.9 6.1
7.9 7.8 8.1 8.6 8.6 8.4 8.6 8.6 8.6 8.9 9.3 9.5 9.0 8.6 7.5 6.2 6.2 6.2 5.9 5.8 5.3 5.2 5.8 5.9 5.7 5.6 5.4 5.3 5.4 4.6 5.9 5.5 5.6 5.5 5.6 5.8 5.5 5.4 5.0 5.7 5.6 5.7 5.7 5.8
8.2 8.1 8.1 8.2 8.4 8.5 8.5 9.2 9.4 9.4 9.6 9.5 8.1 8.7 7.4 7.4 6.8 6.9 6.4 6.2 5.5 5.3 6.2 5.5 6.1 5.9 5.7 5.4 5.0 5.0 5.7 5.7 5.7 5.6 5.5 5.5 5.7 5.7 5.5 5.7 5.5 5.0 4.9 4.9
9.6 9.4 8.6 8.4 8.6 9.4 8.7 9.3 9.2 7.5 9.0 7.7 8.4 9.2 7.8 7.8 7.5 6.8 6.6 6.3 6.2 5.9 6.2 5.5 6.1 5.8 5.5 5.4 5.3 4.9 5.3 5.5 5.6 5.7 5.6 5.5 5.5 5.5 5.8 5.6 5.0 4.7 4.9 5.0
9.5 9.6 9.2 8.6 8.6 8.7 9.1 9.0 9.5 9.3 8.9 8.7 8.4 8.7 8.6 8.1 7.4 6.7 6.7 6.3 6.5 6.7 6.2 5.9 6.0 5.9 5.5 5.4 5.3 5.0 5.3 5.4 5.4 5.5 5.5 5.5 5.5 5.6 5.5 5.5 5.2 5.3 4.8 5.8
9.3 9.3 9.5 8.8 8.4 8.5 8.5 8.4 9.4 9.5 8.7 8.5 7.8 9.1 7.7 8.3 7.5 7.0 7.0 6.7 6.7 6.5 6.2 6.4 6.0 5.7 5.6 5.3 5.3 4.9 5.5 5.6 5.4 5.5 5.6 5.6 5.6 5.6 5.6 5.5 5.2 5.4 5.1 5.5
8.8 9.2 8.9 9.4 8.7 9.4 9.1 9.2 8.8 9.1 7.5 7.0 7.4 7.2 8.5 8.2 8.0 7.5 6.7 6.8 6.3 5.9 6.3 6.3 6.2 5.6 5.5 5.1 5.3 5.1 5.5 5.8 5.7 5.7 5.7 5.7 5.7 5.6 5.8 5.9 5.9 5.9 5.9 6.1
9.1 9.0 9.4 9.3 9.5 9.2 8.5 8.2 8.8 9.5 8.2 8.4 7.6 6.5 8.0 8.3 7.4 7.3 6.2 6.3 5.5 5.4 5.9 6.1 6.2 5.8 5.5 5.2 5.1 5.1 5.6 5.8 5.9 5.7 5.6 5.6 5.7 5.9 6.0 5.9 6.0 6.0 6.1 6.2
8.1 8.8 9.5 9.6 9.3 9.3 9.2 9.5 9.3 8.8 8.1 7.6 7.7 7.7 8.0 8.6 7.8 7.0 6.6 5.8 6.0 5.8 5.9 5.9 6.6 5.9 5.6 5.3 5.6 5.2 5.6 5.7 5.8 6.1 5.9 5.7 5.7 5.7 5.8 5.8 5.8 5.8 5.8 5.8
7.6 8.5 9.4 9.4 8.3 8.2 8.5 8.2 8.5 8.8 7.5 8.8 8.6 8.4 8.3 7.9 8.3 8.3 6.7 6.1 5.9 5.7 5.2 5.5 6.4 5.6 5.6 5.5 5.6 5.6 5.7 5.5 5.6 5.9 6.0 6.0 5.9 5.9 5.8 5.8 5.9 6.0 6.0 6.0
8.0 8.4 8.6 8.6 8.7 9.1 9.2 8.5 8.3 8.7 9.4 8.9 9.0 8.4 9.3 8.7 7.7 8.4 7.5 7.1 6.3 5.9 5.3 5.3 5.9 6.0 5.6 5.7 5.6 5.8 5.8 5.7 5.6 5.7 5.8 5.9 5.8 5.9 5.9 6.1 6.1 6.0 5.9 5.9
7.9 8.2 8.1 8.1 8.3 8.5 8.7 9.3 9.3 9.2 8.3 8.9 8.7 8.3 7.9 7.9 8.4 8.3 8.1 7.8 7.3 6.8 5.4 6.0 6.2 5.9 6.0 5.6 5.3 6.0 5.9 5.8 5.5 5.6 5.6 5.6 5.7 5.6 5.6 5.7 5.8 6.0 6.2 6.2
8.0 8.2 8.2 8.5 8.9 9.5 9.4 9.4 9.4 9.4 8.9 9.0 7.4 8.4 7.2 7.5 8.2 8.4 8.1 8.0 7.6 6.6 6.5 6.3 6.1 6.1 6.1 5.9 6.0 6.1 6.0 5.8 5.8 5.6 5.5 5.5 5.6 5.6 5.7 5.6 5.6 5.7 5.6 5.9
8.0 7.9 8.0 8.3 8.5 9.7 9.4 8.8 8.8 8.8 8.5 8.7 7.4 7.4 7.3 7.6 8.3 8.4 8.4 8.4 7.5 7.7 7.2 7.8 7.1 7.0 6.1 6.1 6.0 6.1 5.8 5.5 5.9 5.9 5.7 5.7 5.6 5.7 5.6 5.6 5.7 5.8 5.6 5.7
7.9 7.8 8.2 9.3 9.4 9.5 9.5 9.1 8.9 8.6 8.6 8.8 7.6 7.4 7.4 8.0 8.3 8.4 8.2 8.3 8.1 7.7 7.6 8.1 7.2 6.9 6.9 6.2 5.9 6.4 5.9 5.9 6.0 5.9 5.7 5.7 5.7 5.7 5.6 5.8 6.0 5.9 5.8 5.7
8.0 7.6 7.8 9.1 9.1 8.8 8.8 8.3 7.5 8.2 8.2 8.2 7.7 6.9 6.8 7.5 7.9 7.4 8.1 7.9 8.0 7.9 7.8 7.8 7.3 7.0 7.2 6.8 6.1 5.4 5.6 5.9 5.9 5.7 5.8 6.1 6.4 6.2 5.5 5.6 6.0 5.9 5.6 5.4
8.6 7.8 8.9 9.3 9.2 9.1 8.6 7.8 7.9 8.3 8.9 7.9 8.3 8.0 6.9 7.0 7.2 7.7 7.9 8.0 7.7 7.6 7.8 7.5 7.5 7.4 7.3 7.1 6.7 5.8 5.4 5.4 5.7 5.2 5.7 6.2 5.9 5.9 6.0 6.2 5.8 5.5 5.2 5.2
8.2 8.9 9.3 9.0 9.2 9.0 8.0 8.0 8.0 8.2 7.6 7.7 7.3 7.4 7.1 7.1 7.3 7.3 7.4 7.7 7.5 7.4 7.4 7.3 7.4 7.0 6.6 6.6 6.7 6.9 6.4 5.7 5.7 5.8 5.8 5.8 6.1 5.9 6.0 5.8 5.6 4.8 4.4 4.5
8.0 8.1 8.5 8.2 8.7 8.0 7.8 7.8 7.6 7.2 7.5 7.7 7.5 7.0 5.7 7.0 7.2 7.3 7.4 7.3 7.1 7.4 7.3 7.0 7.2 7.5 7.2 7.1 7.1 6.7 7.1 6.9 6.8 6.6 6.6 6.3 5.9 5.7 5.4 5.4 5.6 4.8 4.9 5.2
8.4 7.9 7.7 7.8 8.1 8.1 7.9 7.6 7.5 7.2 7.3 7.7 7.5 6.9 7.3 7.3 7.2 7.3 7.3 7.3 7.1 6.9 7.0 7.1 7.1 7.1 7.1 7.0 6.5 7.0 7.2 7.0 6.6 6.3 6.0 5.9 5.8 5.8 5.8 5.5 5.0 5.2 5.0 5.0
9.1 7.5 7.8 7.8 8.1 7.8 7.8 7.5 7.3 7.2 7.1 7.4 7.3 7.2 6.9 6.9 6.7 7.1 7.0 7.3 7.2 6.9 7.1 7.1 7.1 6.7 6.8 6.7 6.6 6.7 6.7 6.8 6.7 6.4 6.1 6.2 6.3 6.3 6.0 5.7 5.4 5.9 5.7 5.5
8.3 8.1 7.8 8.7 8.3 7.8 7.6 7.2 7.4 7.2 7.0 7.3 7.0 7.2 6.9 6.6 7.0 7.1 7.0 6.8 7.0 7.3 7.3 7.3 7.1 7.0 6.8 6.7 6.6 6.9 7.1 7.0 7.0 6.8 6.8 6.6 6.4 6.2 6.0 6.0 5.7 5.6 5.7 5.8
Wind_Speed
14 12 13 16 7 4 9 8 11 11 11 13 7 5 12 7 13 11 6 13 16 16 12 14 14 16 15 12 10 8 5 11 9 8 8 6 7 4 4 11 8 5 6 4
10 13 15 5 2 7 12 4 11 9 13 11 10 7 12 8 9 11 17 9 12 17 4 15 15 12 15 12 10 10 10 9 9 8 3 2 2 7 2 9 8 6 6 4
13 10 9 3 7 11 11 3 6 12 7 4 9 10 15 13 10 15 21 14 13 11 21 13 15 16 11 15 13 13 13 13 11 6 4 3 3 3 4 7 7 7 6 6
10 9 1 12 13 11 14 3 2 1 12 5 18 1 16 18 18 17 22 12 20 28 19 18 18 13 14 12 10 15 14 13 11 10 6 6 6 6 5 7 5 9 6 4
5 4 10 12 11 7 1 4 7 2 12 11 7 10 13 18 14 18 25 25 15 16 15 19 18 18 15 15 12 15 14 12 12 11 7 9 11 4 6 3 7 2 7 5
5 3 8 10 5 7 10 5 7 8 11 12 3 5 9 14 18 20 16 23 19 18 17 18 7 17 16 16 12 15 15 13 12 11 8 10 9 6 6 5 7 7 8 7
8 11 10 6 11 10 13 16 10 10 9 4 4 7 3 11 17 22 25 25 22 20 16 11 17 15 14 15 18 11 17 14 14 12 11 9 8 7 4 5 7 7 7 7
8 12 13 11 17 7 12 19 10 1 6 6 7 2 3 3 9 18 18 22 24 21 17 8 19 13 19 16 16 15 17 16 14 14 12 9 9 7 7 7 7 7 4 6
3 6 8 7 10 11 5 14 19 6 12 4 9 4 8 5 10 20 18 21 20 22 21 12 18 18 15 13 16 15 16 15 16 16 12 11 10 10 7 6 8 8 5 2
3 9 9 12 10 12 13 14 9 7 5 7 3 5 10 6 6 11 11 10 13 21 21 22 18 17 13 15 16 16 16 16 15 15 14 13 13 11 10 4 6 6 5 6
13 10 2 5 11 14 5 13 19 1 6 2 5 7 9 7 5 10 5 6 11 16 25 23 11 18 14 12 15 16 15 16 15 14 14 13 13 13 11 9 9 9 8 5
8 9 8 13 7 12 11 14 27 12 18 4 8 7 9 4 5 9 8 6 3 7 23 15 17 17 18 9 15 16 16 16 15 14 13 13 12 12 12 11 11 11 10 8
11 8 11 14 16 17 10 17 11 2 4 6 1 2 6 7 5 11 14 7 5 2 7 10 14 11 13 17 12 16 15 15 15 14 15 14 14 13 12 11 11 11 10 11
6 13 14 11 3 11 14 16 26 11 7 16 13 10 15 11 7 5 9 10 3 5 3 8 10 10 9 15 14 13 15 15 14 14 12 12 13 13 12 12 11 11 11 9
7 11 12 15 14 14 14 11 20 22 14 13 11 15 3 13 11 6 6 5 5 4 7 8 7 14 11 10 14 14 15 14 14 13 13 11 10 11 10 10 10 11 11 11
4 8 8 12 16 16 19 18 17 11 20 11 21 14 6 13 8 8 4 4 5 8 9 16 12 11 11 15 14 15 13 14 13 13 13 11 11 10 10 10 10 10 11 11
4 8 9 13 14 9 12 16 19 17 16 7 17 4 16 7 8 6 4 3 2 2 6 12 13 13 6 16 8 13 13 13 13 12 12 12 11 11 9 10 11 11 11 11
8 9 8 10 11 13 11 9 10 20 12 6 14 17 9 8 8 6 3 4 3 3 5 10 5 7 9 8 7 9 11 11 10 8 9 6 8 9 9 11 9 11 10 9
4 8 9 10 11 12 9 7 11 14 15 16 20 23 10 3 4 7 4 3 5 1 4 6 2 4 4 5 9 8 8 9 9 11 10 7 5 6 6 10 10 10 8 8
4 5 8 11 7 12 9 4 9 8 12 14 6 12 8 3 7 7 5 4 6 3 3 2 4 5 11 9 6 9 8 7 6 6 5 2 2 2 2 3 1 3 0 5
9 8 11 10 10 6 9 3 5 6 3 11 15 5 9 2 6 6 4 5 3 3 4 3 7 7 4 10 13 10 7 6 7 8 7 6 5 1 2 2 1 1 3 4
7 8 9 8 7 8 6 3 7 7 9 7 12 8 12 10 8 7 6 6 4 3 4 2 6 6 6 4 12 12 11 8 8 9 9 7 6 4 5 6 6 7 8 6
7 8 8 7 6 4 3 8 7 7 7 8 9 6 9 14 10 7 8 4 4 5 3 2 7 8 7 8 10 11 9 10 10 11 11 10 9 7 7 8 8 7 5 5
12 10 6 10 11 10 5 7 9 11 10 10 1 1 4 8 11 9 8 8 6 5 6 4 10 9 8 10 9 7 5 8 10 10 10 8 8 7 7 6 6 6 5 4
5 5 6 9 14 14 11 8 8 7 9 9 3 8 8 7 4 7 9 8 9 6 7 7 8 8 9 9 9 6 7 9 11 10 8 7 6 7 7 7 5 5 6 3
9 10 10 10 7 3 5 3 2 7 6 10 4 5 7 12 11 10 10 8 7 7 8 9 9 9 7 10 9 9 7 8 11 9 7 6 6 6 5 6 7 11 8 6
Wind_Direction
208 219 217 229 250 83 98 131 156 121 146 154 191 220 197 209 261 270 289 279 193 176 179 166 166 163 156 145 162 161 145 148 190 173 187 179 172 159 180 101 118 141 132 124
190 232 222 292 85 260 246 112 79 110 170 241 171 180 149 154 260 268 265 241 236 183 197 167 156 178 160 145 175 159 150 183 203 189 201 200 134 168 148 131 148 144 158 158
225 197 75 212 215 251 261 260 176 124 183 230 175 147 166 181 205 254 259 262 302 284 178 148 178 176 186 152 179 175 166 183 198 235 178 106 351 122 173 132 171 173 172 172
254 102 233 223 241 225 259 55 294 132 246 143 258 349 175 173 194 217 239 259 257 209 242 180 167 190 168 157 187 164 179 178 196 226 159 175 204 197 193 177 163 149 179 184
140 160 213 235 237 214 262 221 277 259 291 307 136 273 141 161 194 205 223 221 228 258 246 180 177 179 180 160 172 173 176 179 185 205 259 182 220 192 180 142 131 264 160 204
318 255 227 241 228 266 272 252 259 252 249 250 94 267 133 175 194 188 222 225 221 223 210 194 192 172 172 173 165 181 165 189 185 191 200 221 211 299 186 179 151 195 176 186
193 195 219 259 229 202 226 234 223 221 212 240 155 282 197 182 166 179 190 207 225 203 238 160 184 186 165 180 162 180 165 187 189 187 193 211 241 237 195 180 213 200 185 190
228 176 190 184 246 195 217 249 262 60 332 354 227 210 22 87 158 174 179 191 204 222 214 216 159 198 164 187 174 184 168 179 192 191 201 199 210 223 239 191 236 234 232 177
270 177 153 175 230 264 218 226 266 318 190 298 176 235 146 81 94 142 185 189 192 218 220 200 194 148 181 169 174 187 170 186 191 194 189 198 199 235 234 215 207 246 258 177
29 268 178 181 244 240 255 322 242 212 222 270 268 179 124 166 179 151 139 224 196 188 222 220 191 168 160 185 176 186 178 186 193 199 192 195 194 208 224 206 215 270 314 250
306 290 211 207 216 254 207 237 238 276 93 211 337 3 94 124 123 135 123 275 276 195 199 218 193 173 156 189 171 180 183 186 194 198 192 200 201 201 210 223 219 226 244 251
1 301 270 208 309 123 127 274 272 262 192 150 123 271 267 67 162 139 88 6 309 329 198 199 194 180 176 194 168 182 184 190 195 196 195 197 208 212 208 217 218 215 226 219
353 258 252 249 204 210 231 245 233 98 28 276 227 324 118 121 123 164 117 85 61 82 4 289 192 182 175 188 187 184 187 191 191 196 195 202 202 206 217 210 217 219 215 215
309 271 289 302 271 264 275 319 319 188 191 226 211 173 164 138 125 111 116 104 24 52 355 323 291 244 180 175 190 189 194 193 193 193 199 197 205 210 213 214 210 215 220 223
257 278 289 291 306 283 275 144 289 293 280 260 114 265 29 117 125 111 111 128 165 50 315 283 254 253 235 195 181 193 199 193 193 191 194 199 201 212 215 220 215 218 216 215
247 281 275 286 281 270 268 269 259 208 253 308 336 218 104 96 115 136 117 129 148 177 199 285 274 196 209 225 197 192 203 192 197 186 196 192 195 207 215 216 226 206 231 233
265 297 294 280 299 298 277 263 259 254 262 311 217 5 341 114 149 123 132 115 185 319 333 260 230 202 240 198 180 194 195 198 186 191 190 193 195 203 212 220 219 222 223 230
256 267 279 273 286 264 258 1 328 315 244 257 276 138 196 41 96 120 139 150 130 324 332 334 300 145 176 196 175 184 202 189 179 186 178 174 208 213 202 228 231 229 229 225
190 273 277 280 255 261 265 229 229 260 278 271 164 262 108 151 167 149 130 113 102 29 302 303 285 195 151 130 163 136 164 168 161 180 188 191 205 217 247 247 239 235 234 229
254 235 267 278 309 297 33 3 326 352 287 291 206 241 103 245 248 96 112 91 101 51 322 38 83 123 166 136 118 125 155 170 172 186 169 178 146 126 248 42 302 46 203 122
211 231 249 240 254 296 68 179 331 245 308 334 327 322 128 129 66 111 100 82 70 68 3 46 97 96 54 143 160 142 151 116 108 111 115 89 66 104 220 122 74 328 136 116
247 265 260 226 267 275 10 242 261 16 323 6 319 19 89 112 117 114 94 70 28 82 67 55 77 66 34 109 124 125 116 127 126 118 125 144 135 121 78 84 73 74 80 65
241 247 299 320 353 250 291 303 297 329 306 312 297 188 234 127 119 120 112 100 88 88 71 70 93 88 52 70 90 89 99 118 117 106 97 91 84 75 91 110 108 98 98 110
213 208 246 270 257 280 287 293 275 271 268 273 247 274 61 99 114 120 123 120 98 88 86 92 95 87 77 70 79 65 103 100 101 96 98 98 96 94 88 87 100 102 101 102
11 122 242 268 256 263 254 231 284 273 240 266 206 159 155 120 109 128 104 99 111 121 98 87 87 84 91 91 84 63 84 99 101 98 96 96 100 101 91 73 26 91 67 38
283 232 256 266 356 310 336 359 264 240 215 242 187 226 153 154 157 138 104 103 118 117 110 102 102 94 91 102 99 96 92 109 116 117 114 119 120 101 98 104 98 57 63 73